Location: Nelson
(41.2830°S, 173.2830°E)
Time: 22:32:56
(UTC+12:00)

Cosmos 1763 Rocket - Pass Details

Date: 24 January 2019
Orbit: 732 x 781 km, 74.0° (Epoch: 21 April)

Event Time Altitude Azimuth Distance (km) Brightness Sun altitude
Rises 22:22:31 0° 203° (SSW) 3,270 8.0 -14.3°
Reaches altitude 10° 22:24:57 10° 206° (SSW) 2,329 7.1 -14.7°
Maximum altitude 22:30:09 62° 285° (WNW) 855 3.9 -15.4°
Enters shadow 22:34:13 16° 3° (N) 1,883 5.1 -15.9°
